Location: Duncanville
(32.6518°N, 96.9083°W)
Time: 11:19:34
(UTC+00:00)

Cosmos 1300 Rocket - Pass Details

Date: 11 February 2026
Orbit: 595 x 619 km, 82.5° (Epoch: 7 March)

Event Time Altitude Azimuth Distance (km) Brightness Sun altitude
Rises 12:10:25 0° 182° (S) 2,863 7.1 -14.0°
Reaches altitude 10° 12:12:38 10° 181° (S) 1,966 6.2 -13.5°
Maximum altitude 12:16:58 78° 96° (E) 634 3.7 -12.6°
Drops below altitude 10° 12:21:23 10° 9° (N) 1,987 6.2 -11.7°
Sets 12:23:37 0° 8° (N) 2,897 7.0 -11.2°
